Home > Weather > Wels > Past weeks

Flag for Austria Past Weather in Wels, Upper Austria, Austria — Yesterday and Last 2 Weeks

Now
73 °F

Partly sunny.


Feels Like: 77 °F
Forecast: 60 / 80 °F
Wind: 3 mph from Southeast

Location: Linz / Hoersching-Flughafen

Current Time: May 27, 2016 at 2:31:18 PM

Latest Report: May 27, 2016 at 1:00 PM


Visibility: 11 mi

Pressure: 29.93 "Hg

Humidity: 58%

Dew Point: 58 °F

Location of WelsLocation

Past Weather in Wels — Graph

°F

Wels Temperature Yesterday

Maximum temperature yesterday: 76 °F (at 5:00 PM)
Minimum temperature yesterday: 50 °F (at 5:00 AM)
Average temperature yesterday: 62 °F

High & Low Weather Summary for the Past Weeks

 TemperatureHumidityPressure
High82 °F (May 22, 5:00 PM)100% (May 26, 7:00 AM)30.20 "Hg (May 26, 7:00 AM)
Low42 °F (May 16, 12:00 AM)29% (May 21, 7:00 PM)29.35 "Hg (May 12, 2:00 PM)
Average56 °F76%29.91 "Hg
* Reported May 12 1:00 PM — May 27 1:00 PM, Wels, Weather by CustomWeather, © 2016

Note: Actual official high and low records may vary slightly from our data, if they occured in-between our weather recording intervals... More about our weather records

Advertising

Wels Weather History for the Previous 24 Hours

Scroll right to see more
 ConditionsComfort  
Time TempWeatherWind HumidityBarometerVisibility
1:00 PM
Fri, May 27
73 °FPartly sunny.3 mph58%29.93 "Hg11 mi
12:00 PM71 °FPartly sunny.3 mph63%29.94 "Hg9 mi
11:00 AM69 °FPartly sunny.5 mph68%29.95 "Hg9 mi
10:00 AM66 °FPartly sunny.5 mph72%29.96 "Hg7 mi
9:00 AM64 °FPartly sunny.5 mph74%29.98 "Hg7 mi
8:00 AM61 °FPartly sunny.N/A80%29.98 "Hg6 mi
7:00 AM58 °FScattered clouds.N/A87%29.98 "Hg8 mi
6:00 AM54 °FPartly sunny.N/A93%29.99 "Hg7 mi
5:00 AM55 °FPassing clouds.N/A92%29.98 "Hg13 mi
4:00 AM56 °FPassing clouds.N/A88%29.98 "Hg14 mi
3:00 AM57 °FPassing clouds.N/A86%29.98 "Hg22 mi
2:00 AM58 °FOvercast.N/A84%29.98 "Hg22 mi
1:00 AM59 °FPassing clouds.N/A82%29.99 "Hg25 mi
12:00 AM59 °FCool.N/A80%29.99 "Hg28 mi
11:00 PM
Thu, May 26
61 °FPassing clouds.N/A78%29.98 "Hg31 mi
10:00 PM64 °FPassing clouds.N/A71%29.97 "Hg31 mi
9:00 PM67 °FPassing clouds.N/A61%29.95 "Hg31 mi
8:00 PM74 °FScattered clouds.N/A47%29.93 "Hg28 mi
7:00 PM75 °FScattered clouds.N/A44%29.93 "Hg25 mi
6:00 PM75 °FScattered clouds.N/A41%29.94 "Hg19 mi
5:00 PM76 °FPassing clouds.N/A40%29.95 "Hg22 mi
4:00 PM74 °FPassing clouds.N/A48%29.96 "Hg22 mi
3:00 PM72 °FPassing clouds.N/A45%29.97 "Hg17 mi
2:00 PM70 °FPassing clouds.N/A55%30.00 "Hg17 mi
Weather by CustomWeather, © 2016

See weather overviewHow to use our weather pages